Location: Alafon
(8.4500°N, 4.2333°E)
Time: 00:42:08
(UTC+00:00)

NOSS 3-3 (C) - Pass Details

Date: 05 July 2020
Orbit: 824 x 1388 km, 63.4° (Epoch: 03 August)

Event Time Altitude Azimuth Distance (km) Brightness Sun altitude
Rises 20:15:37 0° 212° (SSW) 3,370 6.8 -29.5°
Reaches altitude 10° 20:18:05 10° 216° (SW) 2,419 6.1 -30.0°
Maximum altitude 20:23:28 57° 294° (WNW) 969 4.2 -31.1°
Drops below altitude 10° 20:29:02 10° 13° (NNE) 2,496 6.3 -32.2°
Sets 20:31:38 0° 17° (NNE) 3,486 7.1 -32.8°
